Temp
79 81 83 83 84 84 84 83 83 83 83 82 82 83 83 83 83 83 83 83 84 84 84 84 84 84 84 84 83 84 84 83 83 84 83 83 83 83 83 83 83 83 82
82 82 82 83 84 84 84 83 83 83 83 82 82 83 83 83 83 83 83 84 84 84 84 84 84 84 84 83 83 83 83 83 83 84 84 84 84 82 83 84 83 82 82
82 82 83 83 84 84 84 84 83 83 83 83 82 83 83 83 83 84 83 83 84 84 84 84 84 84 84 84 84 83 83 83 83 83 84 80 81 84 84 83 83 82 82
83 82 82 82 84 84 84 84 83 83 83 83 83 83 83 83 83 84 84 84 84 84 84 84 84 84 84 84 82 82 83 83 83 84 79 81 84 83 83 83 82 82 82
83 81 82 83 84 84 84 84 83 83 83 83 83 83 83 83 84 84 84 84 84 84 84 84 84 84 84 83 82 83 82 82 82 84 79 78 78 83 82 83 83 82 82
82 83 83 83 84 84 84 84 83 83 83 83 83 83 84 84 84 84 84 84 84 84 84 84 84 84 84 83 82 82 82 82 84 80 79 80 77 82 83 83 83 82 81
81 82 82 83 83 84 84 84 83 83 83 83 83 84 84 84 84 84 84 84 84 84 84 84 84 84 84 83 83 82 82 82 81 79 77 78 77 82 83 83 82 82 81
82 81 82 83 83 83 84 84 84 84 84 84 84 84 84 83 83 83 84 84 83 84 84 83 83 84 84 83 82 82 82 83 83 81 79 77 79 81 83 82 82 82 81
84 82 81 81 83 84 83 83 83 84 84 84 83 83 83 83 84 83 83 83 83 83 83 83 83 83 83 83 82 82 82 82 79 78 81 79 80 82 82 82 82 81 81
81 81 80 79 79 78 79 83 83 83 84 84 84 84 84 84 84 84 82 82 83 83 83 83 83 83 82 82 82 82 82 83 79 79 77 78 80 83 83 82 82 81 81
81 81 80 79 78 78 78 81 82 83 84 84 84 84 82 77 79 81 81 83 84 84 84 84 82 82 82 82 83 82 83 77 77 76 78 79 81 82 83 82 81 81 81
79 77 81 79 78 77 81 77 77 78 77 76 76 78 77 77 76 80 82 84 84 84 84 83 83 82 81 78 78 81 77 77 77 77 75 80 81 82 82 81 81 81 81
81 80 78 78 79 76 75 75 75 74 73 73 74 75 76 76 76 75 75 77 76 81 79 79 79 78 76 76 75 76 75 76 74 77 81 81 81 82 82 81 81 81 81
80 81 79 80 76 75 73 71 72 74 74 72 73 74 73 72 73 73 74 74 75 75 75 75 75 75 76 76 76 76 76 75 74 75 77 81 80 81 82 81 81 81 81
79 80 79 78 75 73 71 68 66 71 73 73 73 75 73 72 71 73 72 73 74 74 74 74 73 73 75 75 76 76 76 75 77 74 74 81 81 81 82 82 81 81 81
80 79 79 77 75 73 70 69 67 70 73 74 73 74 74 72 72 72 72 72 73 73 73 73 73 73 72 74 75 76 76 75 77 73 74 74 80 80 81 81 81 81 81
79 81 79 77 77 75 73 70 70 73 73 71 70 73 74 73 72 72 71 71 72 73 73 73 74 73 73 74 74 75 75 74 76 76 75 74 77 81 80 81 81 81 81
79 78 79 83 78 76 75 76 76 75 73 72 71 72 74 73 73 72 71 71 72 72 72 72 72 72 72 72 72 73 75 75 76 73 76 75 74 78 79 80 80 80 80
80 78 78 77 78 76 76 74 73 75 75 73 73 73 73 74 75 72 71 71 72 72 71 72 70 71 71 72 72 72 73 73 75 78 75 75 74 75 75 79 80 79 80
80 79 78 77 77 76 75 74 73 73 74 76 73 72 75 73 74 71 71 71 71 70 70 71 70 70 71 72 74 73 72 73 74 73 73 76 74 75 75 75 77 77 80
80 77 76 76 75 73 73 70 70 69 70 69 70 75 73 72 73 71 70 71 70 70 70 70 70 69 70 72 70 69 71 73 73 73 72 73 74 75 74 74 74 74 75
77 77 75 75 74 74 73 71 70 70 70 70 70 72 73 74 73 70 70 70 70 70 69 70 70 68 70 70 66 67 64 67 72 72 72 72 72 73 74 75 73 73 73
77 77 75 74 74 73 74 71 70 68 67 68 68 69 72 73 72 70 70 70 70 70 69 70 70 68 67 70 71 67 63 62 67 70 70 71 72 70 72 73 73 73 72
77 78 76 75 74 74 74 71 69 67 65 66 67 67 69 72 72 72 70 70 70 69 69 70 70 68 68 67 68 71 69 68 64 63 68 70 71 71 71 70 72 73 73
79 76 73 75 73 73 73 72 69 67 67 67 67 67 67 68 70 72 71 70 70 69 70 69 68 67 67 67 66 67 68 68 68 65 63 65 69 70 70 71 72 72 73
76 73 72 73 72 73 71 71 70 68 67 66 66 66 66 67 68 70 71 70 69 70 69 70 69 68 68 67 67 68 66 66 65 65 63 64 65 68 71 70 70 71 73
MSLP
1011.47 1011.28 1011.49 1011.56 1011.85 1011.94 1012.22 1012.76 1013.11 1013.41 1013.68 1013.84 1014.03 1014.43 1014.70 1014.94 1015.16 1015.39 1015.76 1015.94 1015.95 1016.25 1016.41 1016.67 1016.98 1016.94 1016.99 1017.05 1017.27 1017.36 1017.49 1017.75 1018.02 1018.19 1018.47 1018.60 1018.85 1019.15 1019.27 1019.33 1019.53 1019.76 1020.03
1011.04 1011.43 1011.63 1011.88 1012.05 1012.17 1012.45 1012.93 1013.38 1013.63 1013.87 1014.11 1014.36 1014.63 1014.83 1015.30 1015.47 1015.56 1015.86 1016.08 1016.17 1016.31 1016.59 1016.77 1017.01 1017.16 1017.16 1017.16 1017.40 1017.65 1017.76 1017.81 1018.16 1018.32 1018.57 1018.86 1019.08 1019.43 1019.50 1019.52 1019.79 1019.91 1020.15
1010.99 1011.39 1011.87 1012.03 1012.15 1012.24 1012.49 1012.87 1013.34 1013.75 1014.12 1014.44 1014.73 1014.86 1015.04 1015.33 1015.66 1015.77 1016.01 1016.22 1016.35 1016.53 1016.74 1016.99 1017.12 1017.36 1017.47 1017.53 1017.59 1017.79 1017.89 1018.13 1018.19 1018.30 1018.70 1019.08 1019.25 1019.28 1019.44 1019.72 1019.96 1020.12 1020.36
1010.88 1011.37 1011.89 1012.14 1012.23 1012.31 1012.58 1012.85 1013.27 1013.67 1014.04 1014.56 1014.86 1015.04 1015.26 1015.57 1015.67 1015.98 1016.10 1016.26 1016.44 1016.66 1016.89 1017.11 1017.25 1017.45 1017.62 1017.78 1017.80 1017.97 1018.10 1018.37 1018.45 1018.63 1018.95 1019.10 1019.14 1019.43 1019.65 1019.93 1020.18 1020.39 1020.60
1010.92 1011.37 1011.83 1012.06 1012.23 1012.38 1012.56 1012.78 1013.19 1013.72 1014.12 1014.51 1014.88 1015.15 1015.37 1015.63 1015.88 1015.97 1016.26 1016.29 1016.42 1016.67 1016.87 1017.11 1017.37 1017.52 1017.70 1017.90 1018.09 1018.20 1018.43 1018.55 1018.74 1018.81 1019.01 1019.21 1019.29 1019.65 1019.87 1020.03 1020.35 1020.58 1020.81
1011.00 1011.41 1011.59 1012.05 1012.41 1012.50 1012.70 1012.91 1013.25 1013.74 1014.16 1014.54 1014.85 1015.12 1015.40 1015.56 1015.82 1016.07 1016.30 1016.42 1016.52 1016.59 1016.89 1017.07 1017.32 1017.50 1017.70 1017.88 1018.06 1018.17 1018.58 1018.66 1018.76 1018.83 1018.93 1019.16 1019.50 1019.76 1020.03 1020.29 1020.44 1020.68 1020.96
1011.01 1011.51 1011.72 1012.16 1012.53 1012.78 1012.91 1013.21 1013.47 1013.82 1014.19 1014.61 1014.97 1015.20 1015.38 1015.64 1015.86 1016.09 1016.32 1016.55 1016.55 1016.68 1016.84 1017.02 1017.33 1017.48 1017.66 1017.84 1018.05 1018.27 1018.59 1018.74 1018.87 1018.97 1019.05 1019.35 1019.61 1019.85 1020.11 1020.40 1020.66 1020.93 1021.15
1011.15 1011.57 1011.82 1012.36 1012.75 1012.90 1013.08 1013.41 1013.67 1013.94 1014.24 1014.58 1014.94 1015.27 1015.53 1015.78 1015.96 1016.14 1016.32 1016.52 1016.76 1016.84 1016.84 1017.01 1017.36 1017.47 1017.56 1017.77 1017.94 1018.28 1018.64 1018.65 1018.86 1018.96 1019.21 1019.43 1019.87 1020.03 1020.23 1020.50 1020.82 1021.05 1021.31
1010.88 1011.52 1011.98 1012.47 1012.85 1012.96 1013.13 1013.40 1013.66 1013.86 1014.08 1014.44 1014.75 1015.14 1015.48 1015.79 1016.02 1016.12 1016.38 1016.59 1016.79 1016.93 1016.90 1017.14 1017.27 1017.53 1017.58 1017.73 1017.90 1018.19 1018.62 1018.64 1018.97 1019.08 1019.27 1019.41 1019.83 1020.13 1020.40 1020.71 1020.81 1021.08 1021.32
1011.29 1011.60 1011.91 1012.52 1012.84 1013.07 1013.25 1013.39 1013.66 1013.91 1014.18 1014.59 1014.90 1015.18 1015.48 1015.76 1016.03 1016.14 1016.34 1016.53 1016.65 1016.92 1016.88 1017.14 1017.36 1017.53 1017.74 1017.69 1017.97 1018.25 1018.58 1018.84 1019.01 1019.26 1019.44 1019.53 1019.91 1020.19 1020.48 1020.81 1021.01 1021.22 1021.41
1011.29 1011.34 1011.93 1012.39 1012.64 1012.77 1013.14 1013.40 1013.57 1013.77 1014.17 1014.52 1014.97 1015.44 1015.66 1015.98 1016.05 1016.21 1016.32 1016.47 1016.57 1016.70 1016.90 1017.01 1017.26 1017.52 1017.75 1017.72 1017.89 1018.08 1018.43 1018.80 1019.01 1019.11 1019.37 1019.54 1019.87 1020.20 1020.56 1020.90 1021.17 1021.37 1021.51
1011.32 1011.81 1012.14 1012.25 1012.35 1012.67 1013.09 1013.68 1013.96 1014.05 1014.33 1014.86 1014.85 1015.22 1015.64 1015.94 1016.14 1016.11 1016.25 1016.18 1016.31 1016.59 1016.84 1016.98 1017.02 1017.39 1017.89 1017.91 1017.95 1018.05 1018.37 1018.65 1018.85 1018.92 1019.26 1019.66 1019.98 1020.33 1020.62 1020.86 1021.25 1021.40 1021.53
1010.93 1011.40 1011.81 1012.11 1012.16 1012.83 1013.28 1013.88 1014.09 1014.52 1014.82 1015.08 1015.32 1015.41 1015.45 1015.83 1015.99 1016.22 1016.33 1016.39 1016.53 1016.39 1016.65 1016.93 1016.98 1017.25 1017.62 1018.00 1018.03 1018.05 1018.21 1018.43 1018.91 1018.92 1019.09 1019.40 1019.79 1020.17 1020.58 1020.85 1021.16 1021.36 1021.44
1010.66 1010.99 1011.28 1011.63 1012.23 1012.55 1013.05 1013.54 1013.68 1013.97 1014.43 1014.92 1015.04 1015.28 1015.45 1015.97 1016.06 1016.40 1016.51 1016.49 1016.50 1016.49 1016.54 1016.82 1017.03 1017.19 1017.53 1017.76 1017.77 1017.77 1018.10 1018.38 1018.78 1018.92 1019.14 1019.29 1019.74 1020.10 1020.48 1020.68 1020.93 1021.22 1021.43
1010.37 1010.86 1011.18 1011.59 1012.11 1012.68 1013.10 1013.31 1014.02 1013.81 1013.83 1014.39 1014.88 1015.16 1015.52 1015.80 1016.22 1016.26 1016.50 1016.46 1016.40 1016.38 1016.57 1016.68 1016.88 1017.14 1017.23 1017.37 1017.47 1017.65 1017.75 1018.15 1018.77 1018.86 1019.49 1019.28 1019.47 1019.90 1020.25 1020.48 1020.75 1021.00 1021.27
1010.06 1010.62 1011.10 1011.56 1012.02 1012.47 1012.95 1013.42 1014.01 1013.66 1013.70 1013.88 1014.29 1014.56 1015.04 1015.61 1015.81 1016.12 1016.26 1016.44 1016.46 1016.36 1016.67 1016.59 1016.74 1016.98 1017.08 1017.23 1017.36 1017.44 1017.57 1017.74 1018.12 1019.01 1019.16 1018.84 1019.35 1019.68 1020.00 1020.28 1020.53 1020.74 1020.96
1009.95 1010.60 1011.14 1011.50 1012.06 1012.53 1012.89 1013.18 1013.27 1013.20 1013.50 1013.77 1014.21 1014.53 1014.58 1015.19 1015.49 1015.81 1015.98 1016.40 1016.28 1016.20 1016.38 1016.57 1016.60 1016.82 1017.08 1017.05 1017.27 1017.17 1017.32 1017.09 1017.79 1018.19 1018.33 1019.06 1018.96 1019.26 1019.75 1020.08 1020.16 1020.44 1020.66
1009.57 1010.07 1010.69 1011.32 1011.70 1012.22 1012.40 1012.74 1012.91 1013.01 1013.38 1013.57 1013.75 1013.95 1014.12 1014.60 1015.01 1015.43 1015.91 1016.05 1015.90 1016.04 1016.35 1016.66 1016.80 1016.93 1017.17 1017.12 1017.14 1016.97 1017.10 1017.22 1017.61 1018.01 1018.07 1018.42 1018.64 1019.16 1019.45 1019.51 1019.74 1020.08 1020.33
1009.14 1009.73 1010.39 1010.94 1011.36 1011.81 1012.16 1012.15 1012.54 1012.77 1013.04 1013.25 1013.47 1013.76 1013.93 1014.22 1014.55 1014.85 1015.28 1015.57 1015.54 1015.91 1016.17 1016.57 1016.77 1016.95 1017.17 1017.06 1017.12 1016.88 1016.92 1017.03 1017.17 1017.54 1017.92 1018.28 1018.50 1018.90 1019.13 1019.18 1019.58 1019.71 1020.02
1009.42 1010.11 1010.70 1010.86 1011.29 1012.03 1012.31 1012.37 1012.50 1012.67 1012.82 1012.82 1013.17 1013.34 1013.36 1013.76 1014.00 1014.53 1014.86 1015.08 1015.34 1015.84 1016.13 1016.32 1016.55 1016.87 1017.06 1017.07 1016.96 1016.87 1016.85 1016.97 1016.96 1017.47 1017.82 1017.87 1018.16 1018.35 1018.61 1018.80 1019.17 1019.38 1019.60
1008.99 1010.03 1010.75 1011.07 1010.93 1011.44 1012.31 1012.73 1013.06 1012.92 1012.92 1013.19 1013.38 1013.01 1013.12 1013.30 1013.70 1014.04 1014.37 1014.65 1014.93 1015.52 1015.93 1016.05 1016.42 1016.86 1016.98 1016.96 1017.04 1017.19 1017.08 1016.94 1017.02 1017.19 1017.36 1017.54 1017.78 1017.98 1018.19 1018.51 1018.73 1018.95 1019.15
1008.40 1009.56 1010.47 1010.90 1010.77 1011.03 1011.93 1012.38 1012.74 1012.83 1012.80 1012.86 1012.87 1012.74 1012.96 1013.00 1013.22 1013.73 1014.00 1014.41 1014.66 1015.18 1015.66 1015.90 1016.21 1016.73 1016.81 1016.71 1016.93 1017.21 1017.52 1017.44 1017.16 1017.12 1017.31 1017.64 1017.87 1017.82 1018.01 1018.07 1018.28 1018.67 1018.81
1007.28 1009.01 1010.02 1010.63 1010.84 1010.74 1011.49 1012.26 1012.73 1013.02 1013.23 1013.14 1012.86 1012.89 1012.80 1012.76 1012.94 1013.18 1013.58 1013.99 1014.29 1014.71 1015.14 1015.37 1015.72 1016.17 1016.49 1016.57 1016.23 1016.73 1017.36 1017.71 1017.63 1017.35 1017.34 1017.46 1017.55 1017.79 1017.77 1017.73 1017.97 1018.39 1018.75
1007.20 1008.60 1010.02 1010.50 1010.65 1010.60 1011.16 1012.05 1012.62 1013.03 1013.37 1013.12 1013.01 1012.84 1012.70 1012.46 1012.63 1012.89 1013.06 1013.41 1013.99 1014.34 1014.73 1014.98 1015.20 1015.59 1015.90 1016.38 1016.43 1016.32 1016.69 1017.32 1018.23 1018.54 1017.69 1017.44 1017.27 1017.44 1017.62 1017.79 1017.78 1018.06 1018.25
1008.43 1009.19 1009.61 1010.41 1010.56 1010.71 1011.14 1011.67 1012.40 1012.74 1012.75 1012.61 1012.43 1012.39 1012.21 1012.14 1012.16 1012.36 1012.51 1013.00 1013.62 1013.97 1014.25 1014.72 1015.03 1015.22 1015.47 1015.90 1016.11 1016.41 1016.78 1017.11 1017.92 1018.73 1018.37 1017.67 1017.45 1017.17 1017.18 1017.36 1017.47 1017.62 1017.70
1009.07 1009.90 1010.86 1010.86 1010.93 1010.85 1011.53 1011.91 1012.55 1012.73 1012.62 1012.48 1012.17 1012.03 1011.72 1011.62 1011.71 1012.06 1012.20 1012.65 1013.11 1013.54 1013.89 1014.30 1014.57 1014.82 1015.23 1015.51 1015.89 1016.31 1016.53 1017.29 1018.05 1018.31 1018.14 1017.59 1017.38 1017.09 1016.87 1016.95 1017.20 1017.16 1017.25
Wind_Speed
8 11 14 14 14 16 16 15 13 13 14 15 15 14 14 14 15 14 12 12 13 11 11 10 9 10 8 8 11 12 16 17 16 17 16 17 16 15 15 18 18 14 16
15 11 14 13 13 15 15 14 13 12 13 14 14 14 15 13 12 13 12 11 11 12 10 10 10 9 9 8 10 14 16 16 15 16 16 15 14 11 12 17 17 13 17
15 12 12 14 13 13 13 15 14 13 13 12 13 13 13 12 12 12 12 9 10 10 10 9 10 9 9 9 9 13 14 13 14 15 15 5 5 12 15 17 16 17 17
16 10 10 13 13 12 11 14 15 14 14 12 12 12 12 11 12 11 11 10 9 9 9 8 9 9 8 8 8 10 12 11 12 13 6 7 9 14 15 16 15 16 15
15 13 12 14 13 12 12 14 15 14 13 12 11 12 12 11 10 11 10 10 9 8 8 9 7 8 7 7 7 9 11 10 9 10 5 5 6 12 15 16 15 15 15
16 15 15 15 13 12 12 15 16 16 14 13 13 12 12 12 11 10 9 8 8 9 8 8 8 8 8 7 5 6 9 8 10 5 4 8 6 14 15 15 15 16 15
14 14 15 16 13 12 12 13 14 15 14 13 12 12 12 11 11 9 9 7 7 7 9 9 9 9 8 8 7 6 7 7 4 4 5 7 7 14 13 14 14 15 15
15 12 12 17 14 13 12 11 12 13 14 13 12 12 11 11 10 8 8 7 6 6 6 9 9 9 10 8 9 7 5 7 5 3 7 7 10 12 14 16 15 14 14
15 12 10 9 13 15 13 12 12 13 14 14 13 12 11 11 10 10 8 6 6 5 5 7 10 9 10 9 9 8 6 6 4 4 6 6 13 13 15 16 15 15 13
12 12 10 7 7 7 6 11 14 13 13 13 12 12 11 11 10 10 9 6 6 6 6 7 9 9 9 11 10 9 7 6 3 4 4 6 13 14 15 15 14 14 13
11 12 10 9 9 9 7 8 10 13 12 12 11 10 7 3 5 7 7 8 7 6 7 8 8 9 10 9 10 10 9 2 3 3 4 14 14 13 14 13 13 14 13
10 8 10 9 8 7 6 4 4 4 4 3 4 5 4 4 4 5 7 7 7 6 7 7 8 9 10 3 3 8 2 3 2 3 4 15 14 14 14 13 13 13 15
10 8 10 9 8 7 5 3 2 2 3 2 2 2 4 3 3 1 2 2 2 6 3 4 4 3 4 3 4 4 4 4 3 3 8 14 15 15 15 13 12 12 12
9 11 9 12 9 8 5 4 5 4 4 3 4 5 3 2 0 1 2 3 4 2 3 4 3 4 4 6 5 6 5 4 3 3 6 14 12 14 14 15 14 13 12
8 10 10 8 7 8 7 4 3 3 4 5 5 5 3 4 4 3 3 3 2 2 2 3 3 3 4 5 5 6 6 6 6 2 2 10 12 13 14 16 16 15 14
9 10 11 8 8 9 5 5 5 4 4 4 5 6 7 5 4 4 4 4 3 3 3 3 4 3 5 4 4 5 6 5 8 9 5 6 15 14 15 15 16 16 15
10 13 13 9 9 11 8 5 4 4 4 4 3 5 7 6 5 5 4 4 5 4 4 3 3 3 2 3 5 5 5 5 8 7 8 5 9 17 17 16 15 15 15
9 10 9 9 9 8 7 8 7 5 5 5 4 4 6 7 7 5 4 4 5 4 4 3 3 2 3 3 4 5 4 5 5 6 5 5 5 8 13 17 17 16 15
11 11 9 9 10 9 6 3 5 5 4 4 4 4 5 7 8 6 5 5 5 4 4 4 2 2 2 2 4 3 3 3 4 3 7 7 7 6 5 13 16 15 16
11 9 7 6 8 7 4 3 2 3 3 4 5 6 10 8 9 6 5 5 5 4 4 3 3 3 2 2 3 2 2 3 3 4 4 5 7 7 7 7 9 8 16
13 9 8 7 8 6 3 2 1 3 3 2 1 2 5 5 6 7 5 5 5 6 6 5 4 4 3 3 3 1 1 3 3 4 4 4 5 5 5 8 5 5 4
14 12 9 8 8 6 3 2 1 1 2 3 3 4 3 4 6 6 6 5 6 5 6 6 5 3 3 4 4 3 1 3 2 3 4 4 6 5 9 9 7 7 4
14 11 9 8 8 7 6 2 1 2 2 3 3 3 4 5 6 6 6 6 5 6 6 6 6 6 4 2 4 5 3 2 1 1 4 4 5 4 4 5 6 7 5
11 9 7 7 7 7 7 3 2 3 2 3 3 3 5 6 6 6 7 7 6 5 6 6 6 5 5 4 1 2 2 4 3 4 3 3 4 5 7 4 6 7 6
9 5 4 7 7 7 5 5 1 1 2 3 4 6 7 6 6 6 6 7 6 4 5 6 7 5 4 4 3 2 1 2 3 3 5 3 2 3 5 6 7 6 9
12 16 7 8 6 7 8 7 3 3 5 4 5 5 4 4 3 5 6 6 6 6 6 7 7 8 7 4 3 3 3 4 1 3 4 4 4 4 4 4 5 4 5
Wind_Direction
138 138 138 132 135 128 124 126 122 121 118 110 105 102 97 95 99 100 103 106 108 111 114 112 100 94 85 103 109 116 123 123 122 121 120 116 118 124 126 114 114 115 113
135 136 137 138 134 130 129 130 131 126 122 117 118 116 110 105 108 108 98 103 114 115 116 115 110 89 87 105 118 123 127 127 129 123 118 117 116 114 129 117 119 119 119
129 135 140 137 133 131 136 140 140 134 127 125 124 121 117 120 121 118 110 110 112 114 118 118 114 99 102 112 120 129 132 134 131 128 123 104 108 110 126 119 122 121 119
130 133 135 131 127 129 140 144 144 140 136 135 130 128 130 135 133 132 133 132 131 130 130 130 125 114 118 129 131 143 135 138 141 139 121 137 111 116 118 120 123 122 124
133 127 133 123 119 120 130 137 139 141 142 140 140 143 143 142 145 143 147 143 143 139 151 146 143 131 134 148 151 149 143 152 159 160 186 140 126 122 126 127 127 127 124
122 129 126 122 117 119 128 136 139 144 149 152 154 154 154 153 157 153 154 155 147 148 158 161 162 158 149 157 164 158 154 160 175 204 214 144 125 136 137 136 135 135 132
121 133 129 124 120 113 112 128 139 146 154 160 164 161 161 163 161 157 167 166 162 147 159 156 166 165 162 171 181 209 167 178 193 246 113 120 135 142 143 138 136 134 137
123 124 130 129 125 117 114 124 143 153 159 164 167 165 166 165 164 169 164 162 177 167 159 161 169 173 169 175 198 212 171 205 227 148 144 129 143 141 141 143 143 143 141
127 123 127 133 137 131 133 143 151 159 164 170 169 167 166 170 174 167 173 166 178 182 155 177 177 186 177 178 206 205 202 230 274 314 156 138 146 147 146 149 149 149 147
125 130 127 130 123 120 143 154 156 165 169 171 168 170 174 178 182 182 166 174 177 192 173 183 186 192 190 188 199 219 210 222 262 320 155 151 149 154 154 156 154 154 153
138 137 139 146 143 147 153 169 164 169 171 168 168 183 185 163 194 192 182 191 185 193 203 193 201 199 203 192 198 222 216 189 225 259 145 159 151 158 158 160 160 160 159
132 140 150 148 150 143 141 147 130 159 113 89 156 175 161 201 204 187 188 159 165 192 209 211 192 200 201 194 203 215 196 218 192 161 137 158 158 162 165 162 166 168 169
146 145 152 155 153 129 139 134 121 99 82 74 13 1 200 147 159 104 150 144 161 191 190 205 191 186 188 198 206 189 204 221 154 127 159 158 163 167 171 165 169 176 179
156 153 152 156 149 146 130 148 167 159 161 172 189 211 158 135 96 236 176 187 179 212 186 179 186 188 203 219 209 189 205 212 148 137 173 159 168 170 178 173 178 182 188
161 145 154 148 138 136 151 181 57 207 179 178 173 190 165 158 181 211 223 191 210 160 196 187 187 194 201 229 208 194 211 202 137 124 172 158 173 179 185 184 184 190 191
147 140 148 158 149 147 165 193 181 206 193 153 179 172 170 179 185 197 192 202 227 196 207 176 172 206 207 214 230 220 227 221 198 156 194 199 207 190 192 191 193 194 196
133 139 155 148 146 160 173 189 203 216 165 200 183 225 167 183 200 187 178 205 217 212 178 176 172 174 209 213 232 207 158 206 213 186 171 196 196 196 198 199 196 200 201
142 144 144 152 162 168 169 171 186 185 177 191 207 216 198 181 189 195 187 208 200 183 174 166 177 178 222 212 229 201 205 177 220 172 172 191 180 194 204 201 202 201 204
154 151 157 164 165 163 164 172 177 184 175 192 189 211 219 190 193 190 182 206 191 184 178 170 168 154 197 216 248 174 174 189 200 183 170 181 182 184 194 212 211 202 204
144 143 149 147 147 142 151 148 176 193 216 198 209 212 208 198 193 183 195 197 182 171 200 170 161 182 177 230 225 145 186 182 186 210 181 185 195 193 184 213 207 206 209
145 132 143 145 145 140 139 198 184 206 233 271 343 108 222 190 200 190 195 191 178 177 195 193 152 176 204 219 101 21 330 199 232 242 157 186 179 179 175 222 185 192 191
140 153 158 163 150 139 130 162 174 174 259 230 249 272 223 226 212 193 183 198 189 174 182 175 159 155 191 192 155 97 56 333 278 234 198 194 202 197 198 199 181 190 195
144 151 164 166 156 142 147 119 346 14 336 300 285 275 260 230 230 208 209 191 203 170 190 183 176 173 167 215 182 142 107 215 78 352 233 207 200 187 183 192 182 194 200
145 139 131 158 141 134 139 141 204 214 231 227 236 240 245 242 229 216 204 192 199 191 176 190 179 180 144 171 127 187 136 128 75 338 287 240 221 197 186 200 196 204 217
120 108 140 120 107 119 137 132 101 319 267 273 267 265 245 230 217 213 200 189 185 185 175 166 174 172 167 157 154 130 136 109 133 213 271 282 279 229 189 189 194 198 209
106 137 209 118 133 104 92 89 75 1 319 315 309 286 242 216 204 203 203 189 175 178 184 175 182 175 176 153 153 146 131 97 184 212 226 243 211 234 195 194 191 200 195